Regional Weather Roundup
Issued by NWS

Home | Current Version | Previous Version | Graphics & Text | Print | Product List | Glossary On
Versions: 1 2 3 4 5 6 7 8 9 10 11 12 13 14 15 16 17 18 19 20 21 22 23 24 25 26 27 28 29 30 31 32 33 34 35 36 37 38 39 40 41 42 43 44 45 46 47 48 49 50
000
ASUS43 KIND 060309
RWRIN

WEATHER ROUNDUP FOR INDIANA
NATIONAL WEATHER SERVICE INDIANAPOLIS IN
1000 PM EST THU MAR 05 2015

NOTE: "FAIR" INDICATES FEW OR NO CLOUDS BELOW 12,000 FEET WITH NO
SIGNIFICANT WEATHER AND/OR OBSTRUCTIONS TO VISIBILITY.

* - STATION DOES NOT REPORT WEATHER SUCH AS PRECIPITATION OR FOG.

+ - STATION NOT QUALITY CONTROLLED BY THE NATIONAL WEATHER SERVICE.
    USE DATA WITH CAUTION...ESPECIALLY DEWPOINT AND RELATIVE
    HUMIDITY OBSERVATIONS.

INZ001>003-010>013-019-020-060400-
NORTHWEST INDIANA

CITY           SKY/WX    TMP DP  RH WIND       PRES   REMARKS
GARY /AIRPORT/ PTCLDY    13  -3  47 W6        30.56R WCI   4
KNOX *+          N/A      7 -11  43 SW7       30.54R WCI  -5
LA PORTE +     PTCLDY     6  -2  70 CALM      30.53S
MICHIGAN CITY+ PTCLDY     9  -2  61 CALM      30.54S
MONTICELLO +   PTCLDY     5  -1  74 CALM      30.55S
RENSSELAER +   PTCLDY     5   0  78 CALM      30.56S
VALPARAISO     CLEAR      9  -1  64 SW5       30.54R WCI   1

$$

LMZ046-743>745-060400-
SOUTHERN LAKE MICHIGAN

STATION/POSITION TIME  TEMP WIND        PRES
                       AIR  DIR/SP/G
                 (UTC) (F)  (DEG/KT/KT) (MB)
MICHIGAN CITY    0300   13  190/  8/  8   N/A

$$

INZ004-005-014>016-021>024-060400-
NORTH CENTRAL INDIANA

CITY           SKY/WX    TMP DP  RH WIND       PRES   REMARKS
GOSHEN         PTCLDY     6   0  76 W5        30.52R WCI  -3
LOGANSPORT +   PTCLDY     5  -2  72 W3        30.56S
PERU/GRISSOM   MOCLDY     6  -2  70 W8        30.53R WCI  -7
ROCHESTER +    PTCLDY    14   5  67 W6        30.54S WCI   5
SOUTH BEND     PTCLDY     8   1  73 S5        30.53R WCI   0
WARSAW +       PTCLDY    10   3  72 CALM      30.52S

$$

INZ006>009-017-018-025>027-060400-
NORTHEAST INDIANA

CITY           SKY/WX    TMP DP  RH WIND       PRES   REMARKS
ANGOLA *+      CLEAR      9   5  85 CALM      30.49R
AUBURN +       CLEAR     10   5  79 W6        30.52R WCI   1
FORT WAYNE     CLEAR      9   2  73 W5        30.53R WCI   1
HUNTINGTON +   PTCLDY    10  -1  59 W3        30.53S

$$

INZ028-029-035-036-043>045-051>053-060400-
WEST CENTRAL INDIANA

CITY           SKY/WX    TMP DP  RH WIND       PRES   REMARKS
CRAWFORDSVL +  PTCLDY     5  -6  60 NW3       30.56S
GREENCASTLE +  PTCLDY    12   0  57 CALM      30.56S
LAFAYETTE      MOCLDY     6   0  76 NW3       30.57F
TERRE HAUTE    PTCLDY     8   0  69 NW5       30.60R WCI   0

$$

INZ030>032-037>040-046>048-054>057-064-065-060400-
CENTRAL INDIANA

CITY           SKY/WX    TMP DP  RH WIND       PRES   REMARKS
CP ATTERBURY + CLEAR     14   9  79 NW7       30.57R WCI   4
FRANKFORT +    PTCLDY     1  -4  79 SW3       30.56S
GREENWOOD *+   CLEAR     12   1  62 NW6       30.56R WCI   3
INDIANAPOLIS   PTCLDY    10   1  67 NW7       30.54R WCI  -1
-EAGLE CREEK   PTCLDY    11   1  64 NW5       30.54S WCI   3
KOKOMO *+        N/A    N/A N/A N/A MISG        N/A
MARION +       MOCLDY     1  -5  75 W7        30.55R WCI -11
MT COMFORT *+  PTCLDY    12  -4  48 NW5       30.55R WCI   4
SHELBYVILLE    PTCLDY    13   6  74 NW6       30.55R WCI   4
ZIONSVILLE +   PTCLDY     8   0  68 CALM      30.55S

$$

INZ033-034-041-042-049-050-058-059-060400-
EAST CENTRAL INDIANA

CITY           SKY/WX    TMP DP  RH WIND       PRES   REMARKS
MUNCIE         PTCLDY    10   5  80 W5        30.53R WCI   2

$$

INZ060-061-067>069-081>083-085>088-060400-
SOUTHWEST INDIANA

CITY           SKY/WX    TMP DP  RH WIND       PRES   REMARKS
EVANSVILLE     PTCLDY    14   3  61 N5        30.62R WCI   6
HUNTINGBURG *+ PTCLDY    12   0  57 NW8       30.59R WCI   1
WASHINGTON +   CLEAR      9  -1  65 NW7       30.60S WCI  -3

$$

INZ062-063-066-070>080-084-089>092-060400-
SOUTH CENTRAL AND SOUTHEAST INDIANA

CITY           SKY/WX    TMP DP  RH WIND       PRES   REMARKS
BEDFORD +      CLEAR     14   5  67 NW3       30.56
BLOOMINGTON    CLEAR     13   3  64 NW3       30.55R
NORTH VERNON + CLEAR     14   7  73 CALM      30.55R
SEYMOUR +      CLEAR     12   5  73 CALM      30.57R

$$




USA.gov is the U.S. government's official web portal to all federal, state and local government web resources and services.